TimeCDT,TemperatureF,Dew PointF,Humidity,Sea Level PressureIn,VisibilityMPH,Wind Direction,Wind SpeedMPH,Gust SpeedMPH,PrecipitationIn,Events,Conditions,WindDirDegrees,DateUTC
12:54 AM,73.9,66.0,76,29.90,10.0,Calm,Calm,-,N/A,,Clear,0,2013-09-08 05:54:00
1:54 AM,75.0,66.9,76,29.90,10.0,Calm,Calm,-,N/A,,Clear,0,2013-09-08 06:54:00
2:54 AM,73.9,66.0,76,29.89,10.0,Calm,Calm,-,N/A,,Clear,0,2013-09-08 07:54:00
3:54 AM,77.0,64.0,64,29.88,10.0,Calm,Calm,-,0.00,,Partly Cloudy,0,2013-09-08 08:54:00
4:54 AM,75.9,64.0,67,29.89,10.0,Calm,Calm,-,N/A,,Partly Cloudy,0,2013-09-08 09:54:00
5:54 AM,73.9,66.0,76,29.88,10.0,South,4.6,-,0.00,,Partly Cloudy,190,2013-09-08 10:54:00
6:54 AM,73.9,66.0,76,29.90,10.0,SSW,4.6,-,N/A,,Scattered Clouds,210,2013-09-08 11:54:00
7:54 AM,75.0,66.0,73,29.96,10.0,North,9.2,19.6,0.00,Rain,Light Rain,10,2013-09-08 12:54:00
8:07 AM,73.4,66.2,78,29.99,10.0,NE,8.1,-,0.01,Rain-Thunderstorm,Light Thunderstorms and Rain,40,2013-09-08 13:07:00
8:54 AM,73.0,69.1,87,30.00,6.0,NE,4.6,-,0.05,Rain-Thunderstorm,Light Thunderstorms and Rain,50,2013-09-08 13:54:00
9:54 AM,72.0,70.0,93,30.01,3.0,Calm,Calm,-,0.12,Rain-Thunderstorm,Thunderstorms and Rain,0,2013-09-08 14:54:00
10:54 AM,72.0,70.0,93,29.96,4.0,SSE,5.8,-,0.12,Rain,Rain,160,2013-09-08 15:54:00
11:18 AM,73.4,69.8,88,29.97,6.0,Calm,Calm,-,0.02,Rain-Thunderstorm,Light Rain,0,2013-09-08 16:18:00
11:33 AM,73.4,69.8,88,29.96,8.0,SW,3.5,-,0.02,,Mostly Cloudy,230,2013-09-08 16:33:00
11:54 AM,73.9,71.1,91,29.93,8.0,South,4.6,-,0.02,,Overcast,170,2013-09-08 16:54:00
12:54 PM,75.9,72.0,87,29.91,9.0,South,5.8,-,N/A,,Overcast,170,2013-09-08 17:54:00
1:54 PM,80.1,71.1,74,29.90,10.0,South,6.9,-,N/A,,Mostly Cloudy,170,2013-09-08 18:54:00
2:54 PM,82.0,70.0,67,29.89,10.0,SSE,3.5,-,N/A,,Mostly Cloudy,160,2013-09-08 19:54:00
3:54 PM,84.9,68.0,57,29.88,10.0,South,4.6,-,N/A,,Clear,180,2013-09-08 20:54:00
4:54 PM,84.9,69.1,59,29.87,10.0,South,3.5,-,N/A,,Partly Cloudy,170,2013-09-08 21:54:00
5:54 PM,84.0,71.1,65,29.88,10.0,SSW,3.5,-,N/A,,Clear,210,2013-09-08 22:54:00
6:54 PM,82.0,71.1,69,29.88,10.0,Calm,Calm,-,N/A,,Scattered Clouds,0,2013-09-08 23:54:00
7:54 PM,79.0,72.0,79,29.88,10.0,Calm,Calm,-,N/A,,Clear,0,2013-09-09 00:54:00
8:54 PM,78.1,72.0,81,29.89,9.0,Calm,Calm,-,N/A,,Clear,0,2013-09-09 01:54:00
9:54 PM,77.0,72.0,84,29.89,9.0,SSE,3.5,-,N/A,,Clear,150,2013-09-09 02:54:00
10:54 PM,77.0,71.1,82,29.89,10.0,Calm,Calm,-,N/A,,Clear,0,2013-09-09 03:54:00
11:54 PM,73.0,71.1,93,29.90,6.0,Calm,Calm,-,N/A,,Clear,0,2013-09-09 04:54:00